Location: Lac Lasalle
(46.0398°N, 74.1576°W)
Time: 06:19:09
(UTC-05:00)

SEEDS - Pass Details

Date: 23 December 2019
Orbit: 586 x 603 km, 97.5° (Epoch: 17 January)

Event Time Altitude Azimuth Distance (km) Brightness Sun altitude
Rises 05:46:37 0° 13° (NNE) 2,863 ? -18.1°
Reaches altitude 10° 05:48:48 10° 15° (NNE) 1,956 ? -17.8°
Maximum altitude 05:53:04 78° 102° (ESE) 622 ? -17.0°
Drops below altitude 10° 05:57:17 10° 189° (S) 1,943 ? -16.3°
Sets 05:59:27 0° 191° (S) 2,841 ? -16.0°
